BASE

EGKB 220850Z 23008KT 190V260 9999 BKN013 19/16 Q1023

TAF EGKB 131706Z 1318/1422 03009KT 9999 SCT040 PROB30 TEMPO 1318/1320 8000 -SHRA

Hangar Services – Aircraft Sales
fly@1aviation.co.uk
Biggin Hill – EGKB
51°19’14.2″N 0°02’05.7″E
NOTAM AIP – Plates
METAR TAF Weather
1aviation.co.uk
Hangar 170 – Churchill Way
Biggin Hill Airport TN16 3BN
Google Maps

CL605 in Hanger in Biggin Hill

pan1

viewtocanarywharf

1alogo